Temperature
20 20 20 20 17 15 17 18 19 19 19 21 21 21 19 19 19 19 20 19 18 17 16 14 14 13 13 13 12 12 11 10 10 9 9 8 8 8 8 8 7 7 7 7 7 7 8 8 8
19 20 20 20 16 16 17 18 18 19 20 21 21 20 19 19 20 20 20 20 18 17 16 15 14 13 13 13 13 12 12 11 10 9 9 9 8 8 8 8 8 8 8 8 7 8 8 8 8
19 20 20 16 16 16 18 19 18 19 20 20 20 20 20 20 20 20 20 20 19 17 16 15 14 14 13 13 13 13 12 11 10 9 9 9 8 8 8 8 8 8 8 8 8 8 8 8 8
20 20 19 16 18 17 18 19 18 18 19 20 20 19 20 20 20 20 20 20 19 18 16 15 14 14 13 13 13 13 12 11 10 10 9 9 9 9 9 9 9 9 9 9 8 8 8 8 8
20 20 17 16 17 18 18 20 19 17 18 19 19 18 19 20 20 20 20 20 19 18 17 15 14 13 13 13 13 13 12 11 11 10 10 9 9 9 9 9 9 9 9 9 9 9 9 9 9
20 18 16 16 17 18 19 20 19 18 19 19 19 18 20 20 20 20 19 19 19 18 17 15 14 13 13 13 13 12 12 12 11 10 10 9 9 9 9 9 9 9 9 9 9 9 9 9 9
20 15 16 17 17 17 19 21 20 19 19 20 20 18 19 20 19 19 18 18 18 17 17 16 14 13 12 12 12 12 12 12 11 11 10 10 10 10 10 10 10 9 9 9 9 9 9 9 9
20 15 18 17 17 17 20 21 21 21 21 21 20 18 19 20 19 18 17 16 16 16 16 15 14 13 13 12 12 12 12 11 11 11 11 11 10 10 10 10 10 10 9 9 9 9 9 9 9
20 15 15 16 17 18 20 20 21 20 20 20 20 20 20 20 19 17 16 15 15 15 15 15 14 14 13 12 11 11 11 11 11 11 11 11 11 11 10 10 10 10 10 9 9 9 9 9 9
19 14 16 17 18 18 19 19 20 19 18 19 19 20 19 19 19 18 17 17 16 16 16 15 14 14 13 12 11 11 11 11 11 11 11 11 11 11 10 10 10 10 10 9 9 9 9 9 9
18 16 16 18 20 19 19 19 19 18 15 18 19 20 19 18 18 18 18 18 18 17 16 16 15 13 13 12 12 11 11 11 11 11 11 11 11 11 11 11 10 10 10 10 9 9 9 9 9
18 17 18 19 20 19 19 19 18 18 19 20 19 19 18 18 18 18 18 18 17 17 16 16 15 14 13 12 12 12 11 12 12 12 12 11 11 11 11 11 10 10 10 9 9 9 9 9 9
17 17 19 19 19 19 19 18 17 18 21 20 19 18 18 18 18 19 18 18 17 17 16 16 15 15 14 13 12 11 11 12 12 12 12 11 11 11 11 10 10 10 10 9 9 9 9 9 9
18 18 18 19 19 18 17 17 16 19 21 20 20 20 19 19 19 19 18 18 17 17 17 16 16 15 14 13 13 12 12 12 11 11 11 11 11 11 10 10 10 10 9 9 9 8 8 8 8
18 16 15 17 17 17 17 16 15 21 20 20 20 19 19 19 19 19 20 19 19 18 17 16 16 15 14 14 13 12 12 12 11 11 11 11 11 11 10 10 10 10 9 9 8 8 8 8 8
16 15 15 16 17 16 18 15 16 20 19 18 18 19 19 19 19 19 19 19 19 18 17 16 15 14 14 13 13 12 12 11 11 11 11 11 10 10 10 10 10 9 9 8 8 8 8 8 8
15 14 15 16 16 16 16 15 15 18 17 17 17 18 19 19 19 19 19 19 19 18 17 16 15 15 14 13 12 12 11 11 11 10 10 10 10 10 10 10 10 9 8 8 8 8 8 8 8
16 15 15 15 16 16 15 14 15 17 17 16 17 18 18 18 18 19 19 19 19 18 17 16 15 14 14 12 11 11 10 10 10 10 10 9 9 9 9 9 9 8 8 8 8 8 7 7 7
15 15 14 14 15 16 14 14 15 16 16 16 17 17 18 18 18 19 19 19 18 18 17 16 15 15 13 12 12 11 11 11 10 10 10 9 9 8 8 8 8 7 7 7 7 7 7 7 6
16 15 14 14 14 15 14 13 13 15 16 16 16 17 17 17 18 18 18 18 17 17 16 16 15 15 14 13 13 12 11 11 10 10 9 9 8 8 7 7 7 7 7 7 6 6 6 6 6
16 15 14 14 13 13 14 14 14 15 15 16 16 16 16 16 17 17 17 17 16 16 15 15 15 14 14 13 12 12 11 10 10 10 9 9 9 8 7 7 7 6 6 6 6 6 6 5 5
14 15 15 15 13 12 13 13 14 15 15 14 15 16 16 16 16 16 16 16 16 15 15 14 14 13 13 12 12 11 11 11 11 10 10 9 8 8 7 7 6 6 6 5 5 5 5 5 4
15 15 15 14 13 12 12 12 12 14 15 14 14 15 15 15 15 15 15 15 15 14 14 14 13 13 12 12 11 11 11 10 10 10 9 9 8 8 7 7 6 6 6 5 5 5 4 4 4
15 14 13 11 11 12 13 12 13 13 14 14 13 14 14 15 14 14 14 14 14 14 14 13 13 12 12 11 11 10 10 10 9 9 9 8 8 8 7 7 6 6 5 5 5 5 4 4 4
14 13 12 13 12 13 13 13 13 14 14 13 13 14 14 14 14 14 14 13 13 13 13 13 12 12 11 11 11 10 10 9 9 9 8 8 8 7 7 6 6 6 5 5 5 4 4 4 3
14 13 13 13 12 11 12 13 13 13 14 15 14 14 14 14 13 13 13 13 13 12 12 12 12 11 11 11 10 10 10 9 9 9 8 8 7 7 7 6 6 5 5 5 4 4 4 3 3
15 13 12 11 12 11 11 12 13 13 12 12 13 13 13 13 13 13 13 12 12 12 12 11 11 11 11 10 10 10 9 9 9 8 8 8 7 7 6 6 5 5 5 4 4 3 3 3 3
14 12 11 11 12 11 11 11 13 14 13 12 11 13 13 13 13 13 12 12 12 11 11 11 11 10 10 10 9 9 9 8 8 8 8 7 7 7 6 6 5 5 5 4 4 3 3 3 3
13 13 12 10 10 10 10 11 13 14 12 11 11 13 13 13 13 12 12 11 11 11 10 10 10 10 9 9 9 8 8 8 7 7 7 7 6 6 6 5 5 5 4 4 3 3 3 3 2
12 12 11 11 11 9 9 11 13 12 12 12 12 13 13 12 12 12 11 11 10 10 10 10 9 9 8 8 8 7 7 7 7 6 6 6 6 5 5 5 5 4 4 4 3 3 3 2 2
Wind_Speed
5 3 3 4 5 5 3 5 5 5 5 4 5 7 6 5 5 5 2 13 13 20 29 29 28 26 24 22 21 19 18 17 15 14 13 13 12 12 12 12 12 12 12 13 13 14 14 14 14
2 2 5 5 5 1 5 4 7 8 7 5 4 6 5 6 2 4 6 11 18 24 28 28 29 27 25 23 22 21 19 18 16 15 14 14 13 12 12 12 11 11 12 12 12 13 13 13 13
2 2 4 5 4 5 5 5 7 4 5 6 5 3 4 5 6 8 8 15 21 23 26 28 30 28 26 24 23 21 20 19 18 16 15 14 14 13 12 12 11 11 11 11 11 11 12 12 12
3 5 5 4 5 7 7 8 6 4 3 4 6 4 4 3 7 8 11 19 19 19 25 28 30 28 26 25 24 22 21 20 19 17 16 15 14 13 13 12 11 11 10 10 10 10 10 10 10
4 5 4 2 7 7 6 7 9 8 6 6 6 6 5 3 4 9 17 21 21 17 24 27 29 28 27 25 24 23 22 21 20 18 17 16 15 14 13 12 11 10 10 9 9 9 8 9 9
4 5 3 4 8 8 7 3 6 6 5 4 6 4 6 3 6 11 18 19 18 19 24 25 29 28 27 26 25 24 23 21 20 19 18 17 16 15 14 13 12 11 10 9 8 7 7 7 7
4 4 3 5 6 8 6 1 4 4 4 7 8 6 5 4 5 10 12 12 13 19 21 21 25 27 27 26 25 24 23 22 21 20 19 18 17 16 15 14 13 11 10 9 8 7 6 5 5
5 4 2 4 5 8 5 3 3 4 6 3 9 8 8 7 8 9 9 9 10 12 15 18 20 23 24 25 25 25 24 23 22 21 20 19 18 17 16 15 14 13 11 10 9 7 6 5 4
5 4 4 6 6 7 4 3 4 3 4 3 5 5 4 10 13 11 8 7 10 13 12 16 17 19 21 22 24 25 24 23 23 21 21 19 17 17 16 15 15 14 13 11 10 8 7 6 5
5 4 8 7 6 6 5 5 5 4 6 5 5 1 4 12 17 17 14 15 17 19 17 13 16 17 19 21 21 21 21 22 22 20 20 19 17 16 15 16 16 15 14 13 11 10 9 7 6
6 8 8 8 8 6 5 5 4 4 9 11 10 7 8 11 15 18 19 20 20 18 17 17 16 19 19 17 17 16 18 18 19 20 20 19 17 16 15 15 15 15 15 12 11 9 8 8 8
4 8 8 7 4 4 5 5 4 7 13 9 9 7 11 15 19 21 21 20 15 13 18 17 16 17 19 19 16 15 15 16 16 20 22 19 15 14 14 14 15 14 14 13 12 10 10 11 12
5 7 6 7 8 6 6 7 6 10 15 10 8 8 15 18 20 20 18 16 14 15 18 17 16 16 18 17 16 17 16 17 18 20 22 22 17 13 14 15 16 16 16 15 14 13 12 12 13
5 6 9 10 11 6 7 6 4 13 8 7 7 9 15 19 22 17 15 17 19 20 19 17 19 18 17 16 15 15 18 18 19 20 22 23 21 17 15 14 15 17 18 18 16 15 13 12 12
5 7 11 7 4 2 2 7 8 13 7 10 10 8 9 16 17 20 21 21 22 19 17 18 18 16 16 15 16 18 19 20 20 21 23 24 23 20 18 14 14 17 19 18 16 15 13 10 10
4 4 6 8 2 1 1 10 11 8 7 10 10 8 6 7 11 17 17 17 16 14 15 17 17 17 17 15 15 16 19 20 20 21 22 24 25 23 19 15 14 18 18 16 11 8 6 7 7
3 3 6 8 3 2 3 11 11 4 5 7 7 8 7 5 4 8 12 16 15 15 14 16 16 17 17 14 13 14 16 18 20 21 21 23 25 25 22 17 17 18 15 14 11 8 7 8 8
4 5 6 7 6 3 7 13 17 8 2 2 4 6 8 9 7 6 6 10 11 12 13 14 15 15 13 10 8 8 9 10 16 19 21 22 23 25 23 18 16 17 10 9 8 9 8 7 7
5 6 9 9 6 5 9 13 15 8 2 4 5 7 8 8 9 8 5 1 6 9 11 13 15 14 11 8 10 10 13 10 8 14 19 22 23 23 22 16 14 14 11 13 12 9 9 9 4
6 6 8 8 5 4 8 10 8 1 4 5 5 6 7 8 11 11 8 4 2 6 8 10 12 13 13 13 12 7 7 7 8 9 14 20 22 22 22 18 12 12 11 12 12 11 8 7 7
5 6 6 6 8 6 6 8 6 4 4 4 4 4 4 6 8 9 8 4 2 2 6 9 11 12 12 11 6 3 2 2 4 7 8 14 21 22 22 20 17 13 13 14 15 14 13 11 9
6 5 4 3 5 6 4 4 6 1 1 1 2 3 4 5 6 6 7 6 3 3 2 4 6 8 9 9 8 10 10 12 12 10 10 10 17 20 22 21 19 15 14 16 16 15 14 13 12
6 2 2 2 1 4 2 3 8 3 5 5 3 1 2 4 5 6 7 7 6 5 2 1 1 4 6 8 11 11 13 13 9 7 9 11 11 16 20 21 18 16 15 17 16 15 16 15 16
1 5 5 5 4 3 3 4 6 5 9 8 5 3 1 2 4 5 6 7 7 6 5 3 1 2 4 7 9 11 14 13 11 10 10 10 10 11 14 16 16 16 15 17 17 17 18 17 17
4 5 5 5 4 5 4 3 8 7 6 9 9 6 3 1 2 3 5 6 7 7 6 4 3 4 4 6 9 11 13 13 14 14 12 11 10 10 13 15 16 16 17 16 15 17 19 19 17
3 6 5 3 4 6 6 5 7 6 3 7 7 6 3 2 0 1 2 3 4 5 5 4 4 5 5 6 8 9 10 9 11 12 12 12 12 12 12 14 16 17 17 17 17 17 18 17 20
4 4 6 5 1 4 7 7 6 5 7 6 5 4 4 3 2 1 1 2 3 4 4 4 5 6 6 6 7 8 9 10 11 12 11 11 12 11 11 13 15 17 17 18 17 17 19 18 19
3 7 5 4 2 4 7 7 4 4 4 4 5 6 6 5 4 2 1 2 3 3 4 4 4 5 6 6 6 7 8 9 10 9 11 12 13 12 12 12 14 15 16 17 17 17 17 19 19
5 4 5 4 5 5 4 7 5 5 7 8 8 7 7 6 4 3 2 3 3 4 5 5 5 6 6 7 7 7 8 8 8 8 11 11 11 11 12 13 13 14 15 15 16 18 16 19 20
8 8 8 5 5 6 4 8 5 5 5 6 6 4 4 4 3 2 3 4 5 6 6 6 6 6 7 7 7 8 8 8 8 9 11 10 11 11 12 12 12 14 14 14 15 18 18 19 20
Wind_Direction
321 19 69 58 54 47 278 259 186 184 198 189 149 134 152 189 200 226 150 151 147 161 171 174 173 172 172 169 167 164 161 158 155 151 146 139 134 127 121 114 107 102 96 91 87 83 80 77 76
358 63 58 63 85 21 278 254 182 194 188 151 130 124 145 217 205 154 147 167 157 163 170 173 175 174 174 171 169 167 165 163 161 157 152 148 143 137 130 123 116 110 103 97 91 87 83 80 77
349 80 83 76 135 192 236 232 212 224 183 161 154 155 181 212 193 190 188 162 158 166 171 174 177 176 175 174 172 171 169 167 165 162 159 155 151 145 139 133 126 119 113 105 97 91 87 83 80
56 52 58 79 244 234 222 230 213 176 228 208 157 179 227 219 189 187 161 158 161 169 172 177 179 179 178 177 175 174 173 171 170 168 165 162 159 154 149 143 137 131 124 116 107 98 92 86 83
62 74 55 324 274 272 259 225 184 186 203 208 177 193 234 291 169 152 155 163 166 169 173 180 181 182 181 180 179 178 177 176 174 173 172 169 166 162 157 153 149 144 137 129 120 110 101 94 89
57 68 75 279 283 291 292 219 168 203 221 214 188 204 240 336 157 162 162 167 169 169 174 183 185 185 184 184 183 182 181 180 179 178 177 175 172 169 167 165 161 157 151 144 135 125 114 104 98
105 104 189 245 281 298 299 291 187 210 226 214 188 195 266 270 198 156 156 155 163 170 175 185 188 188 188 188 187 186 185 185 184 183 182 181 179 178 176 174 172 169 165 161 155 146 136 123 114
122 107 239 257 265 279 282 290 227 215 242 213 161 183 240 217 156 132 133 144 161 173 181 188 190 188 189 191 192 190 190 189 189 188 187 186 186 186 185 182 181 180 179 177 174 171 167 157 144
87 89 238 241 238 260 278 294 282 293 257 257 197 213 256 141 135 134 141 160 174 185 190 190 191 188 189 190 195 194 194 194 193 192 192 191 190 191 190 185 190 190 190 190 190 191 192 193 194
101 175 232 224 215 241 259 247 263 280 267 260 255 328 101 142 157 168 177 183 188 192 194 192 191 188 187 192 197 195 194 196 195 193 192 189 186 188 189 191 199 200 199 200 203 205 208 209 216
170 204 235 244 242 237 249 254 245 245 266 235 229 210 158 167 177 186 192 193 197 194 192 195 194 189 188 192 194 193 192 193 192 190 188 184 184 189 196 200 210 209 205 204 210 217 214 218 224
232 246 241 255 259 241 242 249 254 231 245 238 226 182 174 184 192 197 201 203 197 191 197 195 193 191 192 192 193 192 190 191 191 190 187 182 184 192 199 206 212 209 202 200 209 219 225 231 233
251 261 272 270 278 254 248 248 259 261 260 274 259 186 190 197 205 209 209 205 196 197 197 196 193 194 193 193 195 197 197 196 194 192 192 190 190 196 202 209 211 211 207 205 210 219 228 235 238
269 285 294 286 277 252 234 259 217 268 286 305 276 225 208 209 211 210 211 210 206 206 201 194 196 196 193 197 200 201 201 199 196 198 199 197 198 199 201 206 210 213 213 213 213 217 222 231 234
305 317 317 298 292 282 180 290 235 255 319 312 302 281 237 224 218 214 213 212 210 209 202 197 197 195 196 199 201 203 202 201 204 206 204 204 204 203 202 207 212 215 216 216 218 222 225 231 233
355 356 316 301 324 279 244 274 261 275 306 308 318 323 306 253 227 226 222 219 214 207 202 200 199 197 200 202 201 204 203 204 209 208 207 209 209 207 205 210 215 214 211 211 212 214 216 228 229
17 314 283 298 282 214 239 267 280 312 297 307 331 349 359 346 300 249 230 219 211 205 199 198 200 198 200 200 200 202 202 207 210 209 210 211 211 209 209 214 216 209 207 210 217 213 210 223 229
266 276 273 276 289 259 254 266 287 308 261 310 350 8 14 11 335 303 260 222 207 199 197 199 201 202 195 190 191 196 205 210 210 211 213 210 211 210 211 217 214 206 206 213 214 217 213 220 224
235 248 272 268 282 300 270 279 291 304 98 90 53 34 25 5 344 358 9 141 178 188 193 197 200 200 188 187 196 204 215 213 211 213 213 211 211 209 211 218 212 208 215 219 215 215 220 226 196
235 271 282 293 329 307 292 297 305 330 125 128 100 60 38 18 10 10 19 44 156 195 202 202 203 199 197 204 204 204 209 212 214 216 215 213 213 212 215 217 216 211 218 221 216 211 218 220 190
264 246 260 284 326 348 353 342 356 19 59 66 60 56 46 39 25 11 14 21 25 226 215 211 208 204 204 202 189 183 177 253 216 219 221 217 216 216 219 219 219 216 216 225 222 215 216 226 211
269 251 240 303 1 314 23 314 291 279 71 84 43 39 46 33 29 21 16 11 350 299 264 233 215 208 204 192 192 198 211 225 226 224 225 218 216 219 220 222 220 220 221 226 224 219 219 220 226
234 301 276 256 130 318 310 199 280 250 210 214 216 190 66 41 38 31 18 9 2 359 1 324 227 215 204 199 204 211 227 236 240 231 229 227 223 222 223 222 223 224 225 227 225 221 218 220 227
20 32 44 50 68 319 250 181 276 221 207 194 201 200 137 64 44 33 20 21 13 12 20 22 2 261 221 212 216 220 232 240 245 241 238 238 234 229 226 224 225 227 229 228 227 225 222 223 225
72 61 11 352 2 268 287 229 254 254 213 174 175 180 185 126 65 35 28 21 13 13 10 7 349 300 261 232 231 231 237 241 244 247 246 245 245 240 232 227 229 231 232 231 227 227 227 226 225
185 140 157 237 261 291 317 258 271 312 96 126 141 162 171 161 157 45 27 18 358 4 7 356 332 303 285 257 249 244 242 244 250 250 248 248 250 248 239 230 233 233 233 232 229 230 230 230 230
157 169 170 145 266 276 287 294 318 41 77 106 136 159 185 208 219 229 321 3 352 354 349 333 321 308 299 281 268 262 252 247 251 256 253 254 255 254 244 237 237 237 235 234 231 233 232 231 232
149 145 105 137 214 272 292 288 237 193 170 168 185 202 218 229 239 244 296 328 334 335 332 332 320 302 297 293 280 272 267 259 257 261 261 260 260 257 254 248 244 243 240 237 234 237 235 233 234
159 174 157 149 165 181 265 274 234 198 188 186 207 216 217 226 238 259 292 320 332 338 339 334 326 316 309 302 293 287 282 277 273 266 265 265 265 261 257 255 251 248 245 241 239 239 235 235 237
183 185 155 168 223 193 204 266 264 168 174 178 199 219 235 250 265 285 315 334 338 337 331 326 319 312 303 299 298 293 289 289 283 276 273 270 268 267 262 260 256 254 251 245 241 243 240 238 238
Height
1547 1548 1549 1551 1554 1564 1564 1555 1550 1549 1547 1544 1544 1545 1547 1549 1552 1554 1548 1547 1548 1549 1551 1554 1556 1559 1561 1562 1564 1564 1565 1565 1566 1566 1567 1567 1567 1567 1567 1567 1566 1566 1566 1565 1565 1564 1563 1562 1561
1547 1548 1550 1550 1560 1571 1566 1552 1549 1544 1542 1542 1543 1544 1545 1545 1545 1545 1544 1545 1546 1548 1550 1552 1555 1557 1559 1561 1562 1563 1564 1564 1565 1566 1566 1566 1567 1567 1567 1567 1566 1566 1566 1565 1565 1564 1563 1563 1562
1548 1549 1550 1552 1561 1567 1558 1549 1545 1541 1541 1541 1542 1543 1543 1543 1542 1543 1543 1544 1545 1546 1548 1550 1553 1555 1557 1559 1561 1562 1563 1563 1564 1565 1565 1566 1566 1566 1567 1566 1566 1566 1566 1565 1565 1564 1564 1563 1563
1548 1550 1551 1556 1558 1554 1549 1544 1542 1542 1542 1541 1540 1541 1541 1541 1540 1541 1541 1542 1543 1545 1547 1549 1551 1554 1556 1558 1559 1561 1562 1562 1563 1564 1564 1565 1566 1566 1566 1566 1566 1566 1566 1566 1565 1565 1564 1564 1563
1548 1549 1554 1560 1556 1548 1542 1539 1540 1541 1540 1539 1539 1538 1538 1537 1537 1538 1539 1541 1542 1543 1545 1547 1550 1552 1554 1556 1558 1559 1560 1561 1562 1563 1563 1564 1565 1565 1565 1566 1566 1566 1566 1566 1565 1565 1565 1564 1564
1549 1549 1561 1564 1556 1547 1541 1538 1539 1539 1538 1538 1538 1537 1534 1534 1534 1536 1537 1539 1541 1542 1543 1545 1548 1550 1552 1554 1556 1557 1559 1560 1561 1562 1562 1563 1564 1564 1565 1565 1565 1565 1566 1566 1565 1565 1565 1565 1564
1549 1553 1559 1557 1555 1549 1541 1539 1539 1538 1537 1536 1535 1535 1531 1531 1532 1534 1536 1537 1539 1540 1542 1544 1545 1548 1550 1552 1554 1556 1557 1558 1559 1560 1561 1562 1563 1563 1564 1564 1564 1565 1565 1565 1565 1565 1565 1565 1564
1548 1552 1554 1556 1553 1549 1540 1539 1538 1537 1535 1534 1533 1532 1529 1529 1529 1531 1533 1535 1537 1538 1540 1541 1543 1545 1547 1549 1551 1553 1555 1557 1558 1559 1560 1561 1561 1562 1563 1563 1563 1564 1564 1564 1564 1564 1564 1564 1564
1547 1555 1559 1554 1550 1544 1539 1538 1536 1535 1533 1532 1530 1528 1527 1527 1527 1529 1530 1532 1533 1535 1536 1538 1540 1542 1544 1546 1549 1551 1553 1554 1556 1557 1558 1559 1560 1561 1561 1562 1562 1563 1563 1563 1563 1563 1563 1563 1563
1546 1556 1551 1544 1541 1539 1537 1536 1534 1532 1530 1528 1527 1525 1524 1524 1524 1525 1525 1526 1528 1529 1531 1534 1536 1538 1541 1543 1545 1547 1549 1551 1553 1554 1555 1557 1558 1559 1560 1560 1561 1561 1561 1561 1562 1562 1562 1562 1562
1544 1547 1541 1538 1536 1536 1534 1533 1531 1530 1527 1523 1522 1521 1521 1521 1521 1521 1522 1523 1524 1526 1528 1530 1532 1535 1537 1539 1542 1544 1546 1548 1549 1551 1553 1554 1556 1556 1557 1558 1559 1559 1559 1560 1560 1560 1560 1560 1560
1542 1539 1537 1534 1534 1533 1531 1529 1528 1526 1521 1519 1520 1519 1518 1517 1516 1517 1518 1519 1520 1522 1523 1526 1528 1531 1533 1536 1538 1540 1542 1543 1545 1548 1550 1551 1553 1553 1554 1555 1556 1557 1557 1558 1558 1558 1557 1557 1557
1539 1536 1533 1532 1531 1529 1528 1526 1526 1520 1516 1516 1515 1515 1513 1512 1512 1512 1513 1515 1516 1517 1519 1521 1524 1526 1529 1531 1533 1536 1537 1539 1542 1544 1546 1548 1549 1550 1552 1553 1554 1554 1555 1555 1555 1555 1555 1555 1554
1536 1534 1531 1528 1525 1524 1524 1522 1523 1515 1514 1513 1511 1510 1508 1507 1506 1507 1508 1509 1510 1512 1514 1516 1518 1521 1524 1526 1528 1530 1533 1535 1538 1539 1542 1544 1545 1547 1548 1549 1550 1551 1551 1552 1552 1552 1552 1551 1551
1536 1534 1531 1525 1522 1521 1522 1522 1518 1512 1512 1510 1507 1505 1503 1502 1502 1502 1502 1503 1505 1507 1509 1511 1514 1517 1519 1521 1523 1526 1528 1531 1532 1534 1537 1539 1541 1542 1544 1545 1546 1547 1548 1548 1548 1548 1548 1547 1547
1536 1538 1539 1527 1523 1522 1525 1526 1512 1512 1511 1508 1505 1502 1499 1498 1497 1497 1498 1499 1502 1504 1506 1508 1510 1512 1514 1516 1519 1521 1523 1525 1527 1529 1531 1533 1535 1537 1539 1539 1540 1543 1544 1543 1543 1543 1543 1543 1542
1541 1545 1540 1532 1523 1523 1524 1521 1508 1510 1509 1506 1504 1501 1498 1496 1495 1494 1494 1495 1497 1499 1502 1505 1507 1508 1510 1512 1515 1517 1518 1520 1521 1523 1525 1527 1529 1531 1532 1533 1535 1537 1537 1537 1538 1537 1537 1537 1537
1543 1542 1540 1536 1525 1523 1524 1519 1508 1506 1506 1505 1504 1501 1499 1496 1495 1494 1493 1493 1494 1496 1499 1501 1503 1505 1507 1510 1512 1513 1514 1514 1515 1517 1518 1520 1522 1524 1526 1526 1528 1529 1530 1530 1530 1530 1531 1531 1531
1537 1538 1539 1532 1523 1523 1521 1517 1508 1504 1505 1505 1504 1502 1500 1498 1497 1495 1494 1493 1493 1494 1496 1498 1500 1502 1504 1505 1506 1507 1507 1508 1509 1510 1512 1514 1515 1516 1518 1519 1520 1521 1521 1522 1523 1523 1523 1523 1524
1534 1536 1536 1529 1523 1523 1520 1517 1508 1504 1504 1505 1505 1503 1502 1500 1498 1496 1495 1494 1494 1494 1495 1496 1497 1499 1500 1501 1502 1503 1504 1504 1505 1506 1506 1507 1508 1509 1510 1511 1511 1512 1513 1513 1514 1515 1514 1514 1516
1531 1534 1532 1531 1527 1522 1522 1518 1512 1508 1506 1507 1506 1505 1503 1502 1500 1498 1496 1495 1495 1494 1494 1494 1495 1496 1497 1498 1499 1499 1500 1499 1499 1499 1500 1500 1501 1502 1502 1502 1503 1503 1503 1503 1504 1505 1506 1505 1506
1534 1526 1527 1527 1532 1535 1531 1535 1520 1511 1510 1508 1507 1506 1505 1503 1501 1500 1498 1496 1495 1494 1494 1493 1493 1494 1494 1496 1496 1495 1494 1493 1492 1494 1494 1494 1494 1494 1493 1494 1494 1493 1493 1493 1494 1495 1495 1496 1495
1526 1524 1526 1526 1530 1536 1532 1535 1525 1513 1512 1509 1508 1507 1506 1505 1503 1501 1499 1498 1497 1495 1494 1493 1492 1492 1492 1493 1492 1492 1490 1489 1488 1488 1487 1486 1486 1485 1485 1484 1484 1483 1483 1482 1483 1484 1483 1483 1483
1523 1526 1529 1534 1538 1539 1528 1534 1525 1515 1507 1507 1507 1507 1506 1505 1504 1502 1501 1499 1498 1496 1495 1494 1493 1492 1491 1490 1490 1488 1487 1485 1484 1482 1480 1479 1478 1477 1475 1475 1474 1473 1472 1471 1471 1472 1472 1471 1470
1526 1535 1543 1540 1545 1538 1527 1527 1520 1503 1499 1501 1504 1506 1506 1506 1505 1503 1502 1500 1498 1497 1495 1494 1493 1492 1490 1489 1487 1485 1483 1481 1479 1476 1474 1472 1470 1468 1466 1466 1464 1463 1462 1461 1461 1460 1459 1459 1458
1525 1532 1544 1546 1548 1543 1529 1526 1513 1502 1498 1500 1503 1506 1506 1506 1505 1503 1502 1501 1499 1497 1496 1494 1492 1491 1489 1487 1485 1483 1480 1477 1474 1471 1469 1465 1462 1460 1458 1457 1454 1453 1452 1451 1450 1448 1447 1447 1446
1524 1530 1531 1542 1543 1545 1537 1524 1511 1504 1503 1503 1505 1506 1506 1505 1504 1503 1502 1500 1499 1497 1495 1494 1491 1489 1487 1485 1482 1479 1476 1473 1470 1466 1463 1459 1456 1453 1451 1448 1445 1443 1442 1440 1439 1437 1435 1435 1433
1521 1526 1536 1540 1545 1548 1540 1529 1518 1508 1507 1506 1506 1506 1505 1504 1503 1502 1501 1500 1498 1496 1494 1492 1489 1487 1484 1481 1478 1475 1472 1468 1465 1461 1457 1453 1450 1447 1443 1440 1437 1434 1432 1430 1428 1425 1424 1423 1421
1525 1526 1529 1538 1543 1548 1546 1532 1507 1503 1503 1505 1504 1503 1503 1503 1502 1501 1500 1499 1497 1495 1492 1489 1486 1483 1480 1477 1473 1470 1466 1463 1459 1455 1451 1447 1443 1439 1435 1431 1428 1425 1422 1420 1417 1414 1412 1411 1409
1518 1520 1527 1535 1537 1540 1544 1530 1501 1501 1501 1502 1502 1502 1502 1502 1501 1500 1499 1497 1495 1492 1489 1486 1483 1479 1476 1472 1468 1464 1460 1456 1452 1448 1444 1440 1436 1431 1427 1423 1419 1415 1412 1409 1406 1403 1400 1398 1396